Find Kosmos-945

NORAD ID: 10291 Int'l Des: 1977-079 Owner: GUKOSR Country: SU operational
LEOCIRCULAR

Live Position

Loading 3D Globe...

About Kosmos-945

Description loading...

Upcoming Passes

Passes for default location (London). Set your location on the main map for personalized predictions.

Altitude History

Loading altitude history...

Two-Line Element Set

1 10291U 77079G 26106.58129316 .00000008 00000-0 16275-3 0 9995
2 10291 74.0242 165.6230 0018284 348.5184 120.4462 12.47248702193440
Epoch: Apr 16, 2026 • Age: 11 hours

Current Status

Altitude 1488.5 km
Velocity 7.12 km/s
Sub-Earth Point -57.63°S, 75.7°W
Launch Date Aug 24, 1977
Age 48.6 years
Type other

Technical Details

Classification Payload
Mass 60.00 kg
Dry Mass 60.00 kg
Total Mass 60.00 kg
Length 0.80 m
Diameter 0.80 m
Span 0.80 m
Shape Poly
Manufacturer NPOPM
Bus Type Strela-1 11F625
Phase Status In Orbit
Owner/State GUKOSR/SU

Most Searched